Temperature
21 20 20 21 26 29 29 29 29 29 28 27 27 27 27 27 27 25 22 22 21 20 20 20 20 20 20 20 20 20 20 20 20 19 19 19 19 19 19 19 18 18 18 19 19 18 18 18 18
20 20 21 25 29 30 29 29 29 29 28 26 26 26 27 26 23 22 21 21 20 20 19 19 20 20 20 20 20 20 20 20 20 19 19 19 19 19 19 19 19 19 19 19 19 18 18 18 18
20 20 24 28 30 30 29 29 29 28 27 26 26 26 26 24 22 21 20 20 20 20 19 19 20 20 20 20 20 20 20 20 19 19 19 19 19 19 19 19 19 19 19 19 18 18 18 18 18
21 23 26 29 30 30 29 29 29 29 27 26 26 26 24 21 21 20 20 20 20 20 19 19 20 20 20 20 20 20 20 20 19 19 19 19 19 19 19 19 19 19 19 18 18 18 18 18 18
22 26 29 30 30 30 29 29 28 29 28 27 26 26 23 20 20 20 20 20 20 20 19 19 20 20 19 19 19 20 19 19 19 19 19 19 19 19 19 18 18 18 18 18 18 18 18 18 18
26 28 30 30 30 30 30 28 28 29 27 26 26 26 22 20 20 20 20 20 20 20 19 19 19 19 19 19 19 19 19 19 19 19 19 19 19 19 18 18 18 18 18 18 18 18 18 18 18
27 29 30 30 29 29 29 28 28 28 27 26 25 26 22 20 20 20 20 20 20 20 19 19 19 19 19 19 19 19 19 19 19 19 19 19 19 18 18 18 18 18 18 18 18 18 18 18 18
26 29 30 30 29 29 29 28 27 27 26 24 24 25 23 20 19 19 19 20 20 20 19 19 19 18 18 19 19 19 19 19 19 19 19 19 19 18 18 18 18 18 18 18 18 18 18 18 18
25 29 30 30 29 30 29 28 26 25 25 24 23 23 22 20 19 19 19 19 19 19 19 19 19 18 18 18 18 18 19 19 19 18 19 18 17 17 17 17 18 18 18 18 18 18 18 18 18
27 29 29 29 29 30 28 28 27 26 26 25 23 21 20 19 19 19 19 19 19 19 19 19 19 18 18 18 18 18 18 18 18 17 17 18 17 17 17 17 18 18 18 18 18 18 17 17 17
28 29 29 29 28 28 28 27 26 27 27 25 23 21 20 19 19 19 19 19 19 19 18 18 18 18 18 18 18 18 18 18 17 17 17 18 17 17 17 17 17 17 17 17 17 17 17 17 17
28 28 28 28 27 27 27 27 26 26 25 22 21 20 20 19 19 19 19 19 19 18 18 18 18 18 18 18 18 18 18 18 18 17 18 17 17 17 17 17 17 17 17 17 17 17 17 17 17
28 29 28 27 27 26 26 26 25 24 22 21 20 20 19 19 19 19 19 19 18 18 18 18 18 18 18 18 18 18 18 18 18 17 17 17 17 17 17 17 17 17 17 17 17 17 17 17 16
29 28 28 27 27 26 26 26 25 24 22 21 21 20 20 19 19 19 18 18 18 18 18 18 18 18 18 18 18 18 18 18 18 17 17 17 17 17 17 17 17 17 17 17 17 16 16 16 16
27 28 29 28 27 27 26 27 26 22 21 21 21 20 19 19 19 18 18 18 18 18 18 18 18 18 18 18 18 18 18 18 17 17 17 17 17 17 17 16 16 16 16 16 16 16 16 16 16
29 29 29 29 28 27 26 27 25 22 22 21 21 20 19 18 18 18 18 18 18 18 18 18 18 18 18 18 18 18 18 17 17 17 17 17 17 17 16 16 16 16 16 16 16 16 16 16 16
29 29 29 29 28 27 27 27 25 22 22 21 21 20 19 18 18 18 18 18 18 18 18 18 18 18 18 18 18 18 17 17 17 17 17 17 17 16 16 16 16 16 16 16 16 16 16 16 16
29 29 29 29 28 27 27 27 25 23 22 22 21 20 19 18 18 18 18 18 18 18 18 18 18 18 18 18 18 17 17 17 17 17 17 17 16 16 16 16 16 15 15 15 15 15 15 15 15
29 29 29 29 28 27 27 26 25 24 23 22 21 20 19 18 18 18 17 17 18 18 18 18 18 18 18 18 17 17 17 17 17 17 17 16 16 16 16 16 15 15 15 15 15 15 15 15 15
29 29 29 28 27 27 26 26 26 24 23 22 21 20 19 19 18 18 17 17 17 18 18 18 18 18 17 17 17 17 17 17 16 16 16 16 16 16 15 15 15 15 15 14 14 14 15 15 15
29 29 29 28 27 26 26 26 25 25 23 22 22 21 20 19 19 18 18 17 17 17 18 18 18 18 17 17 17 17 17 16 16 16 16 16 16 15 15 15 15 14 14 14 14 14 14 15 14
29 29 28 27 27 28 26 27 26 25 24 24 22 21 21 20 19 19 18 18 18 17 17 17 18 18 17 17 17 17 17 17 16 16 16 16 15 15 15 15 14 14 14 14 14 14 14 14 15
28 28 28 27 27 27 27 27 28 26 25 25 24 22 21 20 20 19 19 18 18 17 17 17 17 17 17 17 17 17 17 16 16 16 16 15 15 15 15 14 14 14 14 14 13 13 13 14 14
27 27 27 27 28 27 27 27 27 27 26 26 25 23 22 21 20 19 19 18 18 17 17 17 17 17 17 17 17 16 16 16 16 16 15 15 15 15 14 14 14 14 14 13 13 13 13 13 13
28 28 27 27 27 27 27 27 27 27 27 26 25 23 22 21 20 19 19 18 18 18 17 17 17 17 17 17 17 16 16 16 16 15 15 15 15 15 14 14 14 14 13 13 13 13 13 13 12
28 28 27 26 27 28 27 27 28 27 26 25 25 24 22 22 21 20 19 19 18 18 18 17 17 17 17 17 17 16 16 16 16 15 15 15 15 15 14 14 14 13 13 13 13 13 12 12 12
28 28 29 28 27 27 28 28 28 26 26 25 25 24 23 22 21 21 20 19 19 18 18 18 17 17 17 17 17 16 16 16 15 15 15 15 14 14 14 14 13 13 13 13 13 13 12 12 12
28 29 28 28 26 26 27 28 28 27 26 26 25 24 24 23 22 21 21 20 20 19 18 18 18 18 18 17 17 16 16 16 16 15 15 14 14 14 14 14 13 13 13 13 13 13 12 12 12
27 27 27 28 27 26 26 27 29 28 27 27 26 25 24 24 23 22 21 21 20 19 19 18 18 18 18 17 17 17 16 16 16 15 15 15 15 14 14 14 13 13 13 13 13 13 12 12 12
28 28 28 27 26 27 27 28 28 28 28 27 26 25 25 24 23 23 22 21 20 20 19 19 18 18 18 18 17 17 17 16 16 15 15 15 15 15 14 14 14 13 13 13 13 13 12 12 12
Wind_Speed
10 7 5 4 5 3 2 3 1 2 2 3 4 2 2 2 1 3 6 16 19 19 21 20 17 17 17 17 17 16 16 15 15 14 13 12 11 10 10 9 9 10 10 10 10 10 10 10 10
6 4 5 5 5 1 3 2 1 2 3 4 4 3 2 3 4 6 10 17 20 20 21 20 19 18 17 17 16 16 16 15 14 13 12 12 11 10 9 9 9 9 9 9 9 10 10 9 10
5 5 5 4 2 2 3 3 2 3 4 5 4 1 1 3 4 6 11 19 20 18 19 20 20 18 18 17 16 16 15 15 14 13 12 11 10 9 9 8 9 9 8 8 8 9 9 8 9
4 5 5 5 1 3 3 3 1 3 4 3 3 3 3 3 2 7 16 20 20 18 19 21 20 18 18 17 16 16 15 14 13 12 11 10 10 9 9 8 8 8 8 8 8 8 8 7 7
6 5 6 4 1 3 2 2 0 2 3 3 4 3 4 3 4 13 18 20 20 19 18 21 19 18 17 16 16 15 14 13 13 12 11 9 9 8 8 8 7 7 7 7 7 7 7 6 6
4 5 5 1 3 3 3 2 1 1 2 2 3 3 4 5 9 15 18 18 18 18 17 20 18 17 16 16 15 14 13 12 12 11 10 9 8 7 6 6 6 6 6 6 6 6 6 5 5
5 4 2 1 1 3 4 2 0 0 2 1 1 2 5 7 10 15 17 16 16 16 16 17 18 16 15 14 14 13 12 12 11 10 9 8 7 6 5 5 5 5 5 5 5 4 4 4 3
5 4 3 1 0 3 3 1 1 2 1 1 1 2 4 8 11 14 15 16 16 15 15 15 16 15 15 15 13 12 11 10 9 9 8 7 7 6 6 6 6 5 4 4 4 4 4 3 3
4 5 2 1 2 2 2 1 1 0 2 2 1 2 6 13 13 15 15 15 14 14 14 14 14 14 13 13 14 12 11 10 10 9 8 8 7 7 7 5 6 4 4 4 3 3 4 4 5
5 4 2 3 5 5 2 3 1 3 4 3 4 5 10 14 14 15 16 16 16 15 14 12 12 12 11 10 12 10 10 10 8 7 7 7 4 3 3 8 4 3 3 4 4 3 5 7 6
4 4 4 4 4 5 4 2 1 5 3 1 2 7 11 13 13 13 14 14 14 14 13 12 11 11 10 8 9 7 6 7 7 6 6 4 4 4 3 4 4 4 4 5 5 6 5 4 3
5 5 6 5 5 5 4 2 2 2 2 2 2 6 11 13 13 13 13 14 13 13 13 12 11 10 9 8 7 7 6 6 5 6 5 5 3 3 3 2 2 2 2 2 2 2 2 3 4
8 6 4 4 4 2 2 2 2 0 1 2 4 7 10 11 11 11 11 12 13 12 13 12 11 10 9 7 6 6 5 5 5 4 4 3 3 2 2 1 1 1 1 1 1 2 2 3 3
4 6 6 5 3 2 3 3 3 2 2 3 5 7 9 8 10 10 11 11 12 13 12 11 11 10 9 8 6 5 5 4 3 4 4 3 3 3 2 2 1 0 0 0 1 2 2 3 3
6 7 6 5 4 3 4 5 3 4 4 4 4 5 7 7 8 9 10 11 11 11 11 11 11 10 9 8 7 6 6 5 4 4 4 3 4 4 3 2 2 1 1 1 1 2 2 3 3
8 8 6 4 4 4 6 4 6 5 5 5 5 5 6 6 7 7 9 10 10 10 11 10 10 10 9 7 6 5 5 5 4 4 4 4 4 4 3 2 2 2 1 1 1 1 2 2 3
7 6 5 1 4 4 7 4 5 6 6 6 6 6 6 7 8 7 7 9 9 10 10 10 9 10 9 8 6 6 5 5 5 5 4 4 4 4 3 2 3 2 1 0 1 1 2 2 3
5 8 7 6 2 6 7 5 4 7 7 6 6 6 6 7 8 8 8 9 9 9 10 10 10 9 9 8 6 5 5 5 5 5 5 5 5 5 3 3 3 2 1 1 1 1 1 3 3
9 10 10 6 1 5 7 6 5 7 8 7 7 7 6 6 8 9 10 10 10 10 10 10 10 9 8 6 6 6 5 5 5 5 6 6 5 5 3 2 3 1 1 1 1 2 2 2 3
10 10 8 3 1 5 6 7 5 7 8 8 8 8 8 9 9 10 11 11 10 10 10 10 10 10 8 6 4 4 5 4 5 5 6 6 5 5 4 2 2 1 1 1 0 2 4 3 2
9 9 8 6 3 5 6 6 7 7 8 8 8 8 9 11 11 11 12 12 12 11 11 10 9 9 7 7 6 5 5 5 6 6 5 5 5 4 2 3 2 2 2 1 1 2 3 3 2
8 4 6 5 7 4 4 6 5 8 9 10 10 10 10 11 11 12 12 13 12 11 10 10 9 9 8 8 7 7 6 6 5 5 5 5 5 4 4 3 3 3 2 1 3 0 2 3 4
4 1 4 6 8 8 5 7 1 7 9 10 11 12 12 12 13 13 13 13 12 12 11 10 10 9 8 7 8 7 6 6 6 5 6 5 5 4 4 4 3 3 3 2 2 1 3 3 4
3 4 5 7 7 6 3 6 2 3 6 9 11 12 13 14 13 14 13 13 13 12 11 11 10 9 8 8 7 7 6 6 6 6 6 6 5 4 5 4 4 4 3 2 2 2 3 3 3
7 7 6 5 4 3 1 5 3 1 3 7 11 13 14 14 14 14 15 15 14 14 13 12 11 10 10 9 8 8 7 7 7 6 6 5 5 5 5 4 3 3 3 3 3 3 3 3 3
8 9 8 8 7 5 1 4 2 3 4 6 10 13 14 15 15 15 15 15 15 15 14 13 13 12 11 10 9 7 8 7 6 6 4 5 4 4 5 4 4 3 4 4 3 4 4 3 4
6 8 7 9 9 8 4 2 2 5 7 9 11 13 15 15 16 16 16 16 16 15 15 14 14 12 12 11 10 9 8 7 5 6 6 5 4 4 5 5 4 4 4 4 4 4 4 4 5
7 6 5 7 6 7 4 3 1 5 8 11 13 14 15 16 16 17 16 17 16 15 15 14 14 13 12 12 11 10 9 8 7 7 6 5 5 5 6 6 5 5 5 5 5 5 4 5 5
8 7 8 7 7 8 7 3 3 2 7 11 13 14 16 17 16 16 16 16 16 16 16 15 15 14 13 13 12 10 10 9 9 8 8 7 7 6 6 6 6 6 6 6 5 6 5 6 6
11 11 10 9 8 7 9 4 5 2 6 9 11 13 15 16 16 16 16 16 16 16 16 16 15 15 15 14 13 12 11 10 10 9 8 8 7 7 7 7 7 7 7 6 7 7 6 7 7
Wind_Direction
191 207 240 253 243 227 77 74 61 118 114 114 138 144 145 112 80 89 125 152 150 150 146 150 149 147 144 142 141 139 138 138 137 136 135 132 128 124 119 113 107 102 99 97 95 94 93 94 96
192 216 242 249 261 219 95 70 64 60 92 130 145 154 143 104 65 104 140 151 152 150 150 155 148 149 147 145 142 141 140 139 138 138 136 134 132 128 123 116 109 104 101 101 100 96 94 93 95
202 236 263 255 263 346 63 62 54 94 130 156 154 148 76 97 110 133 149 153 153 149 149 147 151 152 150 148 145 143 142 141 140 139 138 136 132 128 123 116 111 108 106 105 102 98 95 92 94
220 232 241 247 179 54 22 30 62 146 147 167 171 134 104 67 137 148 150 154 152 151 154 149 156 155 153 151 149 147 146 145 144 142 141 138 134 130 124 118 112 110 107 105 104 101 98 94 93
242 256 237 215 104 70 36 9 251 186 156 165 187 151 114 84 133 146 151 154 155 156 154 152 159 158 156 154 152 151 150 148 147 145 144 142 137 133 130 125 118 114 111 107 106 105 101 95 93
238 248 244 205 93 79 65 31 223 167 155 154 182 158 102 117 138 148 153 156 157 156 154 150 159 160 158 157 156 155 153 152 151 150 150 148 145 142 136 134 131 126 121 118 115 111 109 101 93
271 266 269 305 83 92 55 35 31 226 187 157 204 155 120 133 145 151 154 156 157 156 153 154 161 162 161 160 161 160 158 157 157 156 155 153 150 148 145 138 135 133 127 128 129 125 121 113 103
285 266 227 203 313 71 64 44 29 311 117 71 235 195 140 144 149 150 154 158 159 159 158 159 163 162 167 167 165 164 162 162 160 159 159 158 162 165 166 175 151 143 142 149 155 152 148 140 139
264 250 234 14 337 26 45 313 97 72 150 149 112 41 115 141 152 155 159 161 163 164 163 166 163 164 171 170 163 168 167 166 168 169 167 185 189 174 179 146 130 155 167 173 177 174 178 188 182
246 261 16 359 326 323 329 300 256 206 198 180 144 113 131 149 163 167 167 167 168 169 169 168 167 164 172 170 161 174 177 168 187 172 177 190 173 180 166 115 143 168 192 199 187 185 204 225 207
245 278 326 320 318 310 293 273 242 251 234 216 176 152 153 160 170 176 173 172 170 170 172 170 170 168 175 168 169 172 174 168 181 176 183 181 183 184 175 153 164 186 207 214 180 201 218 227 250
251 271 284 296 311 296 290 268 237 271 1 41 138 159 162 168 173 178 174 173 171 175 176 174 168 172 176 172 171 172 175 175 177 170 190 177 187 186 162 174 175 183 212 232 235 227 230 252 249
243 270 282 282 279 285 256 226 236 149 67 120 147 160 170 175 174 176 172 173 171 175 174 172 171 171 173 173 183 174 180 175 165 161 172 184 181 176 165 172 187 229 231 218 231 250 241 246 250
272 273 272 261 243 217 216 188 194 127 120 137 155 166 170 174 177 176 172 171 173 177 174 170 174 172 174 176 177 171 175 165 162 164 164 179 170 156 164 168 142 192 197 7 264 249 241 247 246
260 260 243 214 212 200 227 211 179 139 150 151 151 162 165 171 176 178 175 175 175 176 174 172 173 171 175 177 177 171 169 162 162 155 154 161 162 150 158 143 147 117 115 128 240 270 274 261 250
239 243 249 177 205 195 245 263 132 153 167 168 170 178 179 174 177 177 172 171 173 172 170 173 173 168 170 169 171 168 165 157 155 153 152 152 147 154 167 146 116 115 128 153 186 257 275 283 279
220 269 303 242 196 216 246 282 146 169 178 182 191 195 187 171 174 176 173 170 169 168 168 165 165 163 163 161 163 157 150 153 154 154 153 148 151 154 157 121 105 138 125 124 300 41 308 301 304
307 307 304 304 203 235 254 261 180 186 195 195 197 201 193 184 182 175 173 165 162 160 161 160 157 157 159 156 153 147 147 155 152 148 140 144 147 148 150 133 118 144 117 73 30 345 328 308 307
295 295 299 312 289 250 261 258 213 195 199 198 196 195 194 193 174 170 169 165 162 161 161 160 157 156 160 159 165 161 162 158 154 152 146 152 148 143 152 134 132 159 93 21 318 309 283 298 320
276 284 293 290 205 261 272 263 222 199 202 200 194 192 192 179 167 164 166 165 165 168 169 163 165 162 165 160 162 160 147 158 151 148 144 159 158 166 171 163 186 145 156 173 282 307 310 320 327
280 290 306 305 262 236 269 241 195 192 194 192 193 193 190 183 177 171 172 172 171 173 176 170 166 164 164 160 160 150 150 166 162 162 162 163 169 178 178 184 210 189 228 168 248 280 295 312 310
291 320 290 272 266 282 265 297 187 189 195 196 196 190 188 183 179 173 172 174 173 175 175 169 167 163 164 175 176 176 181 180 168 173 161 163 175 185 186 195 200 224 246 195 241 241 291 294 302
309 304 265 265 273 283 247 287 201 181 208 203 196 190 184 181 180 178 175 174 173 173 171 166 165 163 168 175 171 183 188 176 168 170 155 178 172 186 192 196 203 217 238 237 281 257 280 286 304
173 203 225 239 256 273 318 291 305 193 218 198 189 188 183 178 179 179 175 172 173 172 170 166 166 166 168 174 174 186 178 174 172 181 175 192 186 190 186 196 205 221 235 221 236 251 243 283 304
217 254 268 259 256 311 32 281 328 85 193 192 184 181 181 179 177 176 175 172 173 174 174 173 172 171 172 175 179 181 179 178 184 195 190 208 197 191 180 195 204 220 218 223 233 235 265 259 266
229 261 280 299 308 318 227 285 16 119 159 178 176 175 178 179 178 177 177 175 176 177 177 177 177 177 178 179 179 179 182 192 188 194 202 200 211 194 169 191 202 210 214 221 223 246 240 249 261
237 248 280 279 281 285 289 285 173 165 172 175 174 174 178 180 180 179 179 180 181 182 182 182 179 180 182 182 180 183 189 197 184 180 205 202 198 191 186 197 201 206 212 226 235 249 251 248 253
262 263 242 264 283 285 287 278 324 181 184 180 180 180 180 181 182 182 183 185 186 186 184 185 183 185 186 185 188 186 188 189 189 199 198 197 196 198 197 201 204 208 210 216 234 239 229 244 249
205 223 243 260 274 286 295 315 58 183 189 187 186 185 183 184 183 183 184 186 186 186 185 187 187 188 190 191 192 189 190 190 193 198 196 194 197 195 204 208 212 215 217 219 227 247 241 244 251
239 240 233 248 257 260 281 293 104 149 183 186 186 185 185 186 185 185 185 186 187 189 189 189 191 193 194 192 191 192 193 193 197 198 197 195 197 202 205 211 217 222 223 225 231 243 245 247 252
Height
1519 1519 1520 1522 1514 1504 1504 1503 1500 1502 1504 1508 1509 1509 1509 1510 1513 1522 1524 1525 1529 1533 1535 1538 1541 1544 1547 1549 1551 1553 1555 1556 1558 1559 1560 1561 1562 1563 1564 1564 1565 1565 1565 1566 1566 1567 1567 1567 1568
1521 1521 1522 1519 1506 1506 1507 1502 1502 1503 1507 1510 1511 1512 1511 1514 1517 1520 1522 1525 1529 1533 1536 1539 1542 1545 1548 1550 1553 1555 1556 1558 1559 1560 1562 1563 1564 1564 1565 1566 1566 1567 1567 1567 1568 1568 1569 1569 1570
1521 1522 1521 1510 1503 1505 1505 1501 1502 1505 1508 1510 1511 1512 1513 1516 1519 1520 1522 1525 1530 1534 1538 1540 1543 1546 1549 1551 1554 1556 1557 1559 1560 1562 1563 1564 1565 1566 1567 1567 1568 1568 1569 1569 1570 1570 1571 1571 1572
1523 1523 1518 1507 1504 1502 1502 1502 1503 1504 1508 1510 1510 1512 1516 1519 1519 1520 1522 1526 1531 1534 1539 1540 1544 1547 1550 1552 1555 1557 1559 1560 1561 1563 1564 1565 1566 1567 1568 1569 1569 1570 1570 1571 1571 1572 1573 1573 1574
1523 1518 1508 1503 1502 1502 1503 1504 1504 1503 1506 1509 1510 1511 1516 1518 1518 1520 1523 1527 1531 1536 1540 1541 1545 1548 1551 1553 1556 1558 1559 1561 1562 1564 1565 1566 1567 1568 1569 1570 1571 1571 1572 1572 1573 1574 1574 1575 1576
1521 1513 1505 1503 1503 1502 1503 1505 1505 1504 1507 1510 1510 1511 1517 1518 1519 1521 1524 1529 1533 1537 1541 1542 1545 1549 1552 1555 1557 1559 1560 1562 1563 1565 1566 1567 1568 1569 1570 1571 1572 1572 1573 1574 1574 1575 1576 1576 1577
1518 1508 1504 1503 1504 1503 1505 1506 1506 1506 1508 1510 1512 1512 1517 1519 1520 1523 1526 1530 1534 1538 1541 1543 1546 1549 1552 1555 1558 1559 1561 1563 1564 1566 1567 1568 1569 1570 1571 1572 1573 1573 1574 1574 1575 1576 1577 1577 1578
1519 1510 1503 1502 1504 1503 1506 1507 1509 1508 1510 1513 1514 1513 1517 1520 1521 1524 1527 1531 1535 1538 1542 1545 1548 1550 1553 1556 1558 1560 1562 1563 1565 1566 1568 1569 1570 1571 1572 1573 1573 1574 1574 1575 1576 1576 1577 1578 1579
1520 1511 1504 1502 1503 1502 1506 1507 1510 1511 1512 1513 1514 1515 1517 1518 1521 1524 1528 1531 1535 1538 1542 1545 1548 1551 1554 1557 1558 1560 1562 1564 1565 1567 1568 1569 1572 1573 1573 1574 1574 1574 1575 1575 1576 1577 1577 1578 1579
1517 1507 1504 1505 1504 1503 1506 1508 1508 1509 1510 1512 1515 1517 1518 1519 1521 1524 1527 1530 1534 1537 1541 1544 1548 1550 1554 1557 1558 1561 1563 1564 1566 1568 1568 1570 1571 1572 1574 1573 1574 1574 1575 1575 1576 1576 1577 1578 1580
1512 1508 1505 1506 1507 1506 1506 1507 1509 1508 1507 1511 1514 1516 1518 1519 1522 1524 1527 1530 1533 1537 1541 1544 1547 1550 1554 1556 1558 1561 1563 1564 1566 1567 1568 1570 1571 1572 1573 1573 1574 1574 1575 1576 1576 1576 1578 1579 1579
1512 1509 1509 1508 1508 1507 1506 1507 1508 1509 1511 1513 1514 1516 1518 1519 1521 1524 1527 1530 1532 1537 1540 1543 1546 1549 1552 1555 1558 1560 1562 1564 1566 1566 1567 1569 1570 1571 1572 1572 1573 1574 1574 1575 1575 1576 1577 1577 1578
1509 1507 1507 1508 1507 1507 1507 1507 1509 1510 1512 1513 1514 1515 1518 1520 1522 1524 1527 1530 1533 1535 1539 1542 1545 1548 1551 1554 1557 1559 1561 1564 1565 1565 1566 1568 1570 1570 1571 1571 1572 1573 1573 1574 1574 1575 1575 1575 1576
1506 1506 1506 1505 1506 1507 1507 1507 1509 1511 1513 1513 1515 1515 1517 1519 1521 1523 1525 1528 1531 1534 1538 1541 1544 1547 1550 1553 1555 1558 1561 1562 1564 1565 1566 1567 1568 1569 1570 1571 1571 1572 1572 1573 1573 1573 1573 1574 1575
1507 1504 1501 1501 1503 1505 1506 1504 1506 1511 1513 1513 1514 1515 1516 1518 1520 1522 1524 1527 1531 1534 1537 1540 1543 1546 1549 1552 1555 1558 1560 1561 1563 1564 1565 1566 1567 1568 1569 1570 1570 1571 1571 1571 1572 1572 1573 1573 1573
1502 1499 1497 1496 1500 1503 1505 1501 1506 1510 1512 1512 1514 1515 1516 1517 1518 1521 1524 1526 1530 1533 1536 1539 1543 1546 1549 1551 1554 1557 1559 1560 1562 1563 1564 1565 1566 1567 1568 1569 1570 1570 1570 1571 1571 1571 1572 1572 1572
1496 1495 1494 1494 1497 1499 1500 1499 1504 1509 1511 1511 1512 1513 1514 1516 1518 1520 1522 1525 1528 1531 1534 1538 1541 1544 1548 1550 1553 1555 1557 1559 1560 1562 1563 1564 1566 1567 1568 1569 1568 1569 1570 1570 1571 1571 1571 1571 1570
1496 1493 1493 1493 1493 1497 1497 1497 1502 1507 1509 1510 1511 1512 1513 1515 1517 1519 1521 1524 1527 1530 1533 1537 1540 1543 1547 1549 1552 1554 1556 1558 1559 1561 1562 1564 1565 1566 1568 1568 1568 1569 1570 1570 1570 1569 1569 1569 1569
1493 1494 1493 1491 1492 1496 1495 1496 1498 1503 1506 1508 1509 1510 1512 1514 1516 1518 1520 1523 1526 1529 1532 1535 1539 1542 1546 1549 1551 1553 1555 1557 1559 1560 1562 1563 1565 1566 1567 1568 1567 1568 1569 1568 1569 1569 1569 1569 1568
1493 1493 1490 1490 1494 1495 1494 1494 1494 1500 1502 1505 1507 1508 1510 1512 1515 1517 1520 1522 1525 1528 1531 1534 1538 1542 1545 1548 1550 1552 1554 1556 1558 1560 1561 1563 1564 1565 1567 1567 1568 1567 1567 1567 1567 1567 1568 1568 1567
1490 1490 1489 1491 1492 1493 1494 1491 1493 1496 1500 1503 1505 1507 1508 1511 1513 1516 1518 1521 1524 1527 1531 1535 1537 1541 1544 1546 1549 1551 1553 1555 1557 1559 1560 1562 1563 1564 1565 1565 1566 1566 1567 1567 1566 1566 1566 1567 1566
1489 1486 1489 1491 1493 1489 1493 1494 1488 1490 1495 1498 1501 1504 1506 1509 1512 1514 1517 1520 1524 1527 1531 1533 1536 1539 1542 1545 1548 1550 1553 1555 1557 1558 1560 1560 1562 1563 1564 1564 1564 1565 1566 1565 1565 1565 1565 1565 1565
1487 1488 1488 1489 1489 1490 1488 1491 1482 1486 1490 1492 1496 1500 1504 1507 1510 1513 1516 1518 1523 1526 1530 1532 1535 1538 1541 1544 1546 1548 1552 1554 1556 1557 1558 1559 1560 1561 1562 1562 1563 1563 1564 1564 1563 1563 1563 1564 1564
1488 1490 1489 1488 1485 1495 1487 1492 1485 1480 1483 1485 1491 1496 1501 1505 1508 1512 1515 1518 1522 1525 1528 1531 1534 1537 1539 1542 1545 1547 1550 1552 1554 1555 1557 1558 1559 1560 1560 1561 1561 1562 1562 1562 1561 1561 1562 1561 1561
1487 1490 1495 1496 1495 1491 1484 1488 1482 1475 1478 1482 1487 1493 1498 1502 1506 1510 1513 1516 1520 1524 1527 1530 1533 1535 1538 1541 1543 1546 1548 1550 1552 1554 1555 1557 1558 1559 1558 1560 1559 1560 1560 1560 1560 1560 1560 1560 1559
1483 1485 1497 1506 1499 1487 1482 1485 1475 1475 1479 1482 1486 1491 1496 1500 1504 1508 1511 1514 1518 1522 1525 1528 1531 1534 1537 1540 1542 1544 1546 1549 1551 1552 1554 1555 1557 1558 1557 1557 1557 1558 1558 1559 1558 1559 1559 1558 1557
1481 1481 1475 1485 1486 1491 1481 1476 1472 1475 1479 1482 1485 1489 1493 1497 1501 1505 1509 1513 1517 1520 1523 1526 1529 1532 1535 1538 1540 1542 1545 1547 1549 1549 1551 1553 1553 1555 1555 1555 1555 1556 1556 1556 1556 1557 1556 1556 1556
1477 1474 1481 1485 1498 1498 1485 1479 1474 1474 1475 1479 1482 1486 1490 1495 1499 1503 1507 1511 1515 1518 1521 1525 1527 1530 1533 1536 1539 1541 1543 1545 1546 1548 1549 1550 1551 1552 1552 1553 1554 1554 1554 1554 1554 1555 1554 1554 1553
1481 1481 1479 1477 1481 1493 1495 1482 1465 1468 1471 1474 1479 1483 1487 1492 1496 1500 1505 1508 1512 1516 1519 1522 1525 1528 1531 1534 1536 1539 1541 1543 1544 1545 1547 1547 1548 1549 1550 1551 1551 1552 1552 1552 1552 1553 1552 1552 1552
1470 1471 1475 1485 1485 1483 1485 1478 1463 1465 1468 1472 1476 1480 1485 1489 1494 1498 1502 1506 1510 1513 1517 1519 1522 1525 1528 1531 1534 1536 1538 1540 1541 1543 1544 1545 1546 1547 1547 1548 1549 1549 1550 1550 1550 1550 1550 1550 1549